Wind_Speed
52 47 39 50 44 45 40 39 40 39 37 38 37 37 32 31 28 27 22 24 23 23 20 19 18 16 14 15 13 13 10 6 7 1 5 4 10 11 10 10 12 15 18 19 20
44 44 46 44 48 47 46 43 42 39 40 36 38 38 35 32 33 26 27 21 26 27 25 25 22 20 17 17 15 14 9 14 12 6 5 10 16 14 15 17 18 21 22 20 22
47 45 43 41 47 49 43 48 46 44 41 39 39 39 35 33 35 34 29 30 25 28 30 28 25 23 20 19 18 15 13 10 18 11 11 12 17 14 15 15 20 23 25 22 21
51 48 47 45 46 45 44 46 50 48 47 42 39 37 37 35 33 35 33 30 28 29 30 33 23 24 24 23 24 23 20 20 16 16 13 17 19 16 19 18 22 24 27 23 21
54 52 51 49 48 48 46 46 44 50 49 49 44 39 38 38 38 34 33 32 30 27 31 25 19 22 23 27 26 27 28 22 20 18 25 16 15 18 19 18 23 25 27 21 22
58 57 55 52 51 47 44 47 46 44 51 51 48 45 43 41 40 38 33 32 28 27 33 30 24 22 23 27 25 23 19 24 24 28 29 24 13 10 17 21 20 23 24 23 25
57 56 56 54 53 53 50 46 48 45 47 53 51 49 48 48 45 41 37 34 30 30 30 31 26 28 25 25 24 21 23 15 24 31 34 24 18 14 18 21 22 21 24 25 23
54 54 54 53 53 53 53 49 50 47 47 52 48 51 49 49 50 46 38 37 32 33 34 34 34 31 29 27 22 23 19 17 20 17 26 17 13 12 20 27 26 25 26 31 27
53 53 53 53 54 54 54 52 51 49 49 50 50 51 51 49 50 51 46 37 35 32 35 39 36 37 29 30 24 19 18 16 20 13 11 15 15 17 26 32 31 25 23 30 28
53 52 53 52 53 54 54 53 51 55 52 52 53 54 50 51 52 52 48 46 39 37 36 41 40 39 37 31 25 20 21 21 23 22 22 27 25 25 23 33 30 20 28 31 22
53 53 52 51 52 52 54 53 52 52 55 53 56 54 57 56 56 56 53 48 45 40 37 40 38 38 37 29 25 24 22 23 23 23 23 24 21 22 25 28 25 25 28 26 19
54 52 52 51 51 51 51 52 52 54 54 57 57 57 57 58 58 59 58 54 50 44 38 39 44 43 38 32 29 32 26 27 23 23 22 24 22 27 26 27 32 33 23 13 19
54 52 52 52 51 50 50 53 53 53 57 56 58 58 57 57 58 59 61 59 56 49 42 41 46 48 44 37 37 31 28 31 23 26 22 24 26 26 30 32 23 17 11 23 26
57 55 54 54 53 52 52 50 52 53 55 56 57 60 60 60 62 59 59 60 58 57 49 40 46 45 34 33 33 28 30 32 28 27 29 27 29 31 26 24 25 16 14 16 21
61 59 57 55 54 54 54 53 53 53 52 52 52 55 58 60 61 65 64 60 60 61 56 49 45 43 35 32 35 37 31 35 37 34 26 26 30 21 22 27 28 26 27 26 27
66 62 59 58 55 56 58 56 54 56 57 54 54 55 52 54 55 61 63 65 63 60 61 55 44 42 37 35 38 33 32 38 39 35 38 34 24 21 28 33 31 27 28 29 26
65 64 64 61 57 57 57 57 56 60 59 59 56 54 53 52 50 51 53 62 66 65 63 62 48 48 42 37 44 40 38 35 47 50 44 37 37 43 44 34 34 25 21 26 27
65 63 63 65 63 60 57 54 59 62 63 58 57 55 56 57 56 52 50 50 59 65 67 62 58 51 42 38 48 43 38 37 47 42 47 49 41 40 36 34 24 31 28 25 33
64 62 64 62 63 64 61 58 63 61 61 61 58 60 62 59 58 55 54 52 51 56 63 65 61 59 55 49 44 47 44 50 50 54 52 57 40 33 31 23 36 35 35 41 39
58 64 64 61 60 63 60 62 65 62 60 60 62 62 62 62 60 58 55 57 54 53 54 62 64 63 62 55 46 48 47 49 49 53 55 50 43 37 35 35 46 45 44 41 38
54 58 62 62 62 61 60 65 66 65 63 61 63 61 62 63 64 63 60 58 59 59 55 53 61 67 63 59 56 50 50 47 49 55 54 46 46 47 48 42 42 38 40 37 43
57 55 55 56 59 59 60 66 67 65 64 62 65 63 64 63 64 63 64 66 64 60 58 56 55 67 61 59 56 54 52 56 57 55 58 50 47 45 51 45 45 35 40 48 50
51 54 58 55 54 54 60 62 65 67 67 65 65 65 66 64 64 66 66 64 67 65 62 58 54 59 61 61 57 58 52 55 54 53 55 54 47 47 48 48 40 49 46 49 48
45 52 53 55 55 55 56 57 59 63 64 65 66 68 68 68 68 69 66 67 67 63 63 61 59 59 62 64 63 55 55 55 50 46 52 53 52 53 47 44 45 52 51 43 44
35 37 45 54 55 55 54 56 57 60 63 64 63 66 67 67 71 71 70 68 68 67 65 67 63 64 67 66 69 68 57 56 52 48 50 57 48 49 48 49 52 55 45 47 48
32 33 39 45 55 58 60 61 61 60 57 60 61 64 66 65 70 73 72 72 68 67 67 67 65 68 68 72 70 75 69 65 65 55 51 46 50 53 56 61 69 64 59 59 62
29 37 39 38 43 45 57 61 61 63 64 60 61 60 59 62 67 71 72 72 69 68 64 66 67 69 69 71 73 73 73 75 73 70 61 56 58 63 66 67 59 59 63 62 62
Wind_Direction
241 238 239 234 235 240 233 225 228 227 230 229 229 225 228 227 231 230 212 223 219 226 233 230 230 233 225 231 221 232 241 238 232 202 314 350 344 330 323 339 331 327 329 326 319
243 240 240 245 234 239 236 229 226 226 228 226 229 230 229 230 230 229 227 223 224 227 231 234 223 234 235 240 246 245 241 250 244 245 284 316 321 316 328 331 335 325 327 329 320
245 245 242 241 234 234 237 229 228 224 226 226 226 232 233 234 236 231 230 229 227 229 231 240 227 226 236 241 247 244 263 286 238 241 299 304 315 316 307 326 328 328 326 329 322
244 244 243 240 236 234 234 230 232 228 223 227 227 232 234 235 234 232 234 232 234 234 236 230 246 224 230 241 248 257 260 263 260 259 286 298 309 303 307 328 333 330 329 332 321
243 242 243 240 239 235 232 232 233 235 226 225 226 227 234 234 234 231 234 239 238 231 233 227 238 240 241 244 253 266 273 287 277 264 299 297 293 313 321 337 335 331 333 330 324
244 245 241 240 236 235 234 233 233 235 224 225 226 224 224 231 235 228 233 239 240 228 234 233 239 244 247 246 256 271 279 274 278 285 292 288 300 295 333 333 329 325 332 330 324
242 240 241 240 237 235 236 236 231 231 225 225 225 225 223 231 229 234 234 235 240 235 232 228 242 251 250 251 251 264 274 293 300 286 281 282 287 321 327 323 323 320 325 332 327
239 239 239 237 235 236 233 235 230 229 226 226 224 223 222 230 227 227 229 232 236 237 237 238 245 244 248 255 260 258 262 277 276 307 288 265 292 301 303 315 324 312 320 333 335
238 238 238 238 236 234 231 232 228 228 227 227 227 224 225 227 230 230 231 230 235 234 242 235 240 234 235 240 243 250 248 261 273 289 280 288 296 315 294 306 317 314 305 330 330
237 238 238 236 235 231 229 228 228 227 227 227 226 224 226 228 230 232 233 229 229 237 239 232 238 242 245 241 245 260 264 271 273 286 269 280 294 309 291 302 307 295 311 320 319
237 237 237 235 233 231 228 228 226 229 228 227 228 226 228 229 232 232 234 232 226 231 237 234 239 244 241 237 250 264 255 256 263 268 277 284 286 282 285 295 303 301 307 312 323
238 236 236 233 232 231 230 229 228 229 227 226 226 227 228 231 233 231 234 234 233 231 235 236 241 243 243 246 259 264 258 249 254 271 277 285 277 279 282 287 296 303 303 315 328
234 234 236 234 231 232 231 230 229 230 229 227 227 229 228 230 232 231 232 234 236 235 230 237 244 245 243 248 257 254 255 250 261 268 266 278 278 275 282 286 292 295 302 328 328
234 234 236 236 234 232 230 229 228 230 230 228 229 228 228 230 232 232 233 233 236 236 229 237 245 242 232 247 243 253 269 255 256 263 261 278 275 269 271 298 298 285 293 325 324
234 236 236 236 235 233 231 230 229 229 229 227 227 231 230 230 233 232 234 234 234 234 232 235 237 223 229 243 246 256 257 265 251 253 249 259 268 275 303 300 284 285 305 312 323
236 234 235 235 234 233 232 231 231 232 231 227 225 227 228 229 233 233 234 233 234 233 233 235 226 225 224 237 252 247 247 256 252 242 258 276 268 267 301 301 287 301 314 317 328
237 236 235 236 232 234 234 234 234 235 232 229 227 229 229 228 227 228 231 234 233 233 231 236 226 226 236 235 244 248 241 265 259 245 268 281 284 288 294 293 294 289 306 305 332
235 236 235 236 234 234 233 234 237 236 235 233 230 227 232 230 228 228 231 234 234 232 232 234 231 224 223 236 242 238 240 248 260 255 275 279 284 285 282 292 285 309 313 314 319
234 233 234 234 235 235 235 236 238 237 237 236 233 230 231 232 230 228 232 234 234 230 231 231 232 228 230 232 242 243 245 251 256 265 273 275 276 281 284 281 296 301 301 303 309
233 232 234 234 235 235 235 237 239 237 236 235 236 235 233 232 233 232 229 234 234 232 230 231 233 234 231 237 235 241 246 258 269 273 278 269 277 285 280 288 290 297 300 302 308
230 232 232 234 233 235 236 237 237 237 237 237 238 235 235 235 233 233 231 232 234 234 231 233 233 235 236 238 240 239 246 249 267 264 266 268 287 288 287 290 290 294 292 298 303
230 230 232 232 232 233 237 237 238 237 237 236 239 237 236 233 234 233 232 231 233 232 233 234 234 233 233 236 235 241 247 257 264 254 260 279 279 282 277 285 287 294 298 300 300
230 228 230 229 229 229 233 236 236 238 237 236 239 238 237 235 235 234 234 232 232 231 232 231 234 233 228 230 233 237 238 249 258 261 265 270 270 271 282 277 282 298 300 298 296
232 229 231 232 233 233 235 238 239 240 241 240 239 239 239 238 235 236 233 234 233 232 235 236 232 233 232 228 232 233 235 240 245 257 259 263 266 268 270 269 280 294 297 292 303
239 234 235 236 236 237 237 240 241 239 238 240 238 239 238 238 240 236 233 233 233 232 230 233 231 229 232 231 231 233 235 237 243 242 259 266 264 265 265 275 287 292 282 284 296
242 238 235 233 234 233 232 233 234 239 239 241 241 238 238 238 240 239 235 233 231 232 233 232 231 229 230 230 232 232 236 239 247 244 247 257 270 262 264 274 278 288 285 281 285
239 234 239 237 238 236 237 238 239 241 243 241 244 239 239 239 238 237 235 232 229 230 231 234 232 232 232 230 231 232 238 241 246 248 246 259 262 274 277 279 278 274 284 289 291
Height
10868 10873 10876 10881 10885 10890 10894 10898 10903 10908 10912 10916 10920 10924 10928 10933 10936 10939 10942 10944 10946 10947 10948 10950 10952 10953 10953 10953 10955 10955 10958 10959 10959 10959 10960 10960 10958 10960 10959 10958 10957 10955 10952 10950 10948
10860 10864 10869 10873 10878 10883 10887 10892 10896 10902 10907 10911 10915 10919 10923 10927 10931 10935 10938 10940 10942 10944 10945 10946 10950 10951 10950 10952 10953 10953 10956 10958 10956 10957 10957 10957 10957 10957 10954 10955 10952 10951 10949 10947 10945
10851 10856 10860 10865 10870 10874 10879 10884 10889 10894 10900 10905 10909 10913 10918 10921 10925 10929 10933 10935 10938 10940 10942 10941 10946 10948 10948 10949 10950 10952 10952 10954 10954 10956 10955 10956 10955 10955 10954 10953 10951 10948 10946 10944 10942
10841 10846 10851 10855 10860 10865 10870 10875 10881 10887 10892 10897 10903 10908 10912 10915 10920 10923 10927 10930 10934 10936 10937 10938 10941 10944 10946 10946 10947 10947 10948 10951 10952 10953 10955 10952 10952 10952 10950 10949 10947 10944 10941 10940 10939
10830 10835 10840 10846 10851 10856 10862 10867 10872 10876 10884 10889 10895 10902 10906 10909 10912 10917 10921 10925 10928 10931 10933 10934 10936 10941 10943 10943 10944 10944 10944 10946 10947 10949 10949 10953 10953 10950 10946 10946 10944 10940 10938 10937 10936
10819 10824 10829 10835 10841 10847 10852 10858 10863 10867 10874 10881 10887 10894 10900 10902 10906 10911 10915 10920 10923 10927 10929 10930 10931 10936 10938 10939 10940 10941 10942 10942 10944 10944 10944 10946 10948 10949 10946 10944 10941 10939 10936 10933 10931
10806 10812 10817 10823 10830 10836 10843 10848 10854 10859 10865 10872 10879 10886 10892 10894 10900 10903 10909 10914 10917 10921 10923 10925 10926 10929 10933 10934 10936 10938 10939 10939 10939 10939 10937 10940 10941 10944 10943 10940 10940 10937 10934 10931 10928
10794 10800 10805 10812 10818 10824 10832 10838 10845 10851 10857 10864 10871 10877 10884 10886 10891 10897 10902 10907 10912 10915 10917 10920 10921 10924 10927 10930 10932 10933 10933 10934 10937 10935 10935 10936 10938 10939 10937 10937 10937 10935 10931 10926 10924
10782 10788 10793 10799 10807 10813 10820 10829 10836 10842 10848 10855 10862 10869 10875 10880 10884 10889 10895 10900 10905 10909 10912 10914 10916 10919 10923 10925 10927 10928 10929 10931 10930 10930 10931 10933 10933 10932 10931 10932 10933 10931 10928 10925 10921
10771 10777 10782 10788 10795 10802 10810 10817 10825 10833 10839 10846 10853 10860 10867 10871 10874 10879 10886 10893 10898 10902 10905 10908 10910 10914 10915 10918 10921 10924 10925 10926 10926 10926 10927 10929 10931 10929 10931 10928 10929 10928 10926 10922 10921
10760 10765 10770 10777 10784 10791 10800 10807 10815 10822 10830 10836 10842 10850 10855 10862 10865 10872 10877 10884 10889 10894 10896 10901 10905 10907 10908 10912 10915 10918 10919 10921 10922 10921 10922 10923 10927 10926 10927 10926 10925 10924 10923 10919 10915
10747 10754 10759 10766 10773 10781 10789 10796 10803 10809 10817 10824 10831 10838 10844 10850 10855 10862 10868 10874 10880 10885 10890 10895 10896 10899 10902 10905 10908 10912 10913 10914 10916 10915 10916 10917 10921 10918 10920 10923 10920 10918 10917 10914 10911
10735 10742 10748 10755 10762 10771 10777 10784 10792 10797 10803 10815 10821 10827 10835 10841 10844 10851 10857 10864 10870 10877 10882 10886 10886 10892 10896 10899 10902 10904 10905 10906 10908 10909 10910 10911 10913 10916 10915 10916 10918 10915 10913 10910 10906
10723 10730 10737 10744 10752 10760 10766 10775 10780 10785 10793 10803 10810 10814 10822 10828 10832 10841 10846 10854 10861 10865 10873 10877 10880 10884 10888 10892 10896 10898 10899 10901 10902 10904 10905 10906 10907 10912 10913 10910 10910 10912 10913 10912 10905
10709 10717 10725 10733 10741 10749 10755 10762 10770 10775 10782 10792 10799 10802 10809 10815 10822 10828 10835 10843 10848 10854 10864 10866 10874 10877 10882 10885 10889 10891 10894 10894 10896 10897 10900 10902 10904 10906 10906 10905 10904 10907 10906 10908 10902
10695 10703 10712 10719 10729 10735 10742 10751 10759 10762 10768 10779 10786 10789 10799 10807 10809 10818 10824 10831 10837 10846 10854 10858 10867 10871 10872 10876 10880 10884 10888 10890 10891 10891 10890 10893 10896 10899 10901 10900 10897 10898 10894 10893 10899
10680 10689 10698 10704 10716 10722 10731 10740 10748 10747 10756 10765 10776 10784 10790 10794 10799 10806 10812 10816 10825 10833 10841 10845 10858 10861 10863 10869 10871 10877 10879 10881 10884 10883 10879 10885 10888 10890 10892 10894 10893 10892 10894 10889 10888
10665 10675 10683 10689 10701 10709 10719 10729 10732 10735 10740 10757 10765 10775 10775 10780 10788 10796 10801 10806 10812 10820 10828 10839 10847 10849 10853 10861 10862 10867 10870 10872 10871 10877 10876 10874 10885 10882 10883 10883 10882 10883 10884 10884 10886
10652 10662 10665 10677 10687 10696 10707 10717 10712 10721 10734 10742 10752 10758 10760 10769 10777 10785 10791 10796 10801 10808 10816 10824 10833 10837 10845 10848 10854 10859 10865 10859 10864 10867 10868 10863 10874 10874 10875 10876 10873 10870 10876 10876 10876
10637 10645 10654 10665 10674 10682 10694 10696 10699 10710 10719 10727 10735 10742 10748 10758 10766 10773 10781 10784 10792 10797 10804 10814 10819 10825 10833 10838 10844 10850 10852 10853 10858 10858 10860 10855 10858 10866 10866 10868 10863 10864 10864 10864 10867
10623 10630 10642 10651 10660 10670 10677 10677 10685 10695 10706 10715 10720 10730 10736 10743 10749 10757 10767 10773 10776 10783 10793 10800 10809 10812 10823 10830 10834 10840 10842 10844 10848 10848 10852 10852 10851 10847 10854 10863 10849 10857 10857 10857 10856
10610 10619 10629 10638 10648 10657 10660 10662 10672 10683 10691 10701 10703 10715 10720 10729 10736 10744 10748 10753 10765 10774 10782 10791 10794 10800 10812 10816 10821 10829 10832 10834 10839 10838 10839 10844 10843 10841 10839 10848 10840 10846 10848 10848 10849
10598 10608 10611 10624 10634 10641 10640 10650 10661 10668 10676 10687 10691 10699 10706 10716 10721 10726 10734 10747 10752 10759 10767 10777 10788 10790 10800 10803 10810 10818 10821 10825 10828 10829 10829 10829 10835 10831 10834 10837 10838 10829 10836 10839 10838
10588 10595 10605 10614 10620 10629 10636 10642 10647 10652 10661 10668 10678 10682 10690 10698 10706 10710 10723 10728 10738 10751 10759 10769 10774 10780 10786 10791 10799 10807 10812 10811 10816 10816 10817 10816 10822 10821 10826 10823 10826 10820 10827 10829 10823
10579 10590 10598 10602 10610 10618 10624 10628 10634 10637 10644 10652 10663 10667 10676 10684 10686 10694 10707 10715 10724 10733 10743 10747 10760 10767 10772 10779 10787 10796 10799 10797 10802 10804 10805 10803 10812 10814 10814 10817 10813 10803 10818 10820 10818
10575 10582 10584 10586 10592 10600 10606 10612 10617 10621 10631 10638 10648 10653 10660 10669 10669 10678 10690 10699 10709 10721 10728 10737 10747 10752 10757 10766 10773 10779 10784 10786 10785 10789 10793 10800 10795 10798 10810 10807 10804 10798 10798 10808 10810
10565 10567 10571 10579 10580 10587 10592 10599 10604 10610 10615 10627 10631 10640 10650 10652 10652 10661 10671 10682 10696 10706 10716 10723 10733 10740 10746 10751 10757 10764 10767 10770 10766 10768 10790 10794 10792 10786 10789 10794 10787 10783 10787 10790 10790